Change the Weather History Date:

Wednesday, February 29, 2012

  Actual Average Record
Temperature  
Mean Temperature 56 °F -  
Max Temperature 63 °F 65 °F 68 °F (2008)
Min Temperature 48 °F 48 °F 41 °F (2004)
Degree Days  
Heating Degree Days 10    
Growing Degree Days 6 (Base 50)    
Moisture  
Dew Point 47 °F    
Average Humidity 72    
Maximum Humidity 87    
Minimum Humidity 42    
Precipitation  
Precipitation 0.00 in 0.08 in - ()
Sea Level Pressure  
Sea Level Pressure 30.22 in    
Wind  
Wind Speed 3 mph ()    
Max Wind Speed 10 mph    
Max Gust Speed -    
Visibility 6.0 miles    
Events      
Averages and records for this station are not official NWS values.
T = Trace of Precipitation, MM = Missing Value Source: Averaged Metar Reports

Daily Weather History Graph

Daily Weather History Graph

Search for Another Location

Airport or City:

Trip Planner

Search our weather history database for the weather conditions in past years. The results will help you decide how hot, cold, wet, or windy it might be!

Date:

Astronomy

Feb. 29, 2012 Rise Set
Actual Time 7:49 AM CET 7:11 PM CET
Civil Twilight 7:23 AM CET 7:37 PM CET
Nautical Twilight 6:53 AM CET 8:07 PM CET
Astronomical Twilight 6:23 AM CET 8:37 PM CET
Moon 11:41 AM CET (2/29) 1:34 AM CET (2/29)
Length of Visible Light 12h 14m
Length of Day
11h 22m
Waxing Crescent, 44% of the Moon is Illuminated
Feb 29
Waxing Crescent
Mar 1
First Quarter
Mar 8
Full
Mar 15
Last Quarter
Mar 22
New

Hourly Weather History & Observations

Time (CET) Temp. Dew Point Humidity Pressure Visibility Wind Dir Wind Speed Gust Speed Precip Events Conditions
12:00 AM 59.0 °F 48.2 °F 67% 30.24 in 6.2 mi East 2.3 mph - N/A   Mostly Cloudy
12:30 AM 57.2 °F 48.2 °F 72% 30.24 in 6.2 mi ESE 3.5 mph - N/A   Mostly Cloudy
1:00 AM 58 °F 50 °F 67% 30.25 in 9 mi East 2.3 mph - -   Mostly Cloudy
1:00 AM 57.2 °F 48.2 °F 72% 30.24 in 6.2 mi East 2.3 mph - N/A   Mostly Cloudy
1:30 AM 57.2 °F 48.2 °F 72% 30.24 in 6.2 mi Variable 1.2 mph - N/A   Mostly Cloudy
2:00 AM 53.6 °F 48.2 °F 82% 30.24 in 6.2 mi NW 1.2 mph - N/A   Mostly Cloudy
2:30 AM 55.4 °F 48.2 °F 77% 30.24 in 6.2 mi Calm Calm - N/A   Scattered Clouds
3:00 AM 53.6 °F 48.2 °F 82% 30.24 in 6.2 mi Calm Calm - N/A   Scattered Clouds
3:30 AM 53.6 °F 48.2 °F 82% 30.21 in 6.2 mi West 2.3 mph - N/A   Scattered Clouds
4:00 AM 53.6 °F 48.2 °F 82% 30.21 in 4.3 mi West 2.3 mph - N/A   Scattered Clouds
4:30 AM 53.6 °F 48.2 °F 82% 30.21 in 4.3 mi NW 1.2 mph - N/A   Scattered Clouds
5:00 AM 53.6 °F 48.2 °F 82% 30.21 in 4.3 mi Calm Calm - N/A   Scattered Clouds
5:30 AM 51.8 °F 46.4 °F 82% 30.21 in 4.3 mi NW 2.3 mph - N/A   Scattered Clouds
6:00 AM 51.8 °F 46.4 °F 82% 30.21 in 4.3 mi NW 3.5 mph - N/A   Scattered Clouds
6:30 AM 50.0 °F 46.4 °F 87% 30.21 in 5.0 mi WNW 2.3 mph - N/A   Mostly Cloudy
7:00 AM 52 °F 46 °F 75% 30.25 in 9 mi West 2.3 mph - -   Partly Cloudy
7:00 AM 51.8 °F 46.4 °F 82% 30.21 in 6.2 mi West 2.3 mph - N/A   Scattered Clouds
7:30 AM 50.0 °F 44.6 °F 82% 30.21 in 6.2 mi WNW 3.5 mph - N/A   Scattered Clouds
8:00 AM 50.0 °F 46.4 °F 87% 30.24 in 3.7 mi WNW 4.6 mph - N/A   Scattered Clouds
8:30 AM 50.0 °F 46.4 °F 87% 30.24 in 4.3 mi WNW 6.9 mph - N/A   Scattered Clouds
9:00 AM 51.8 °F 46.4 °F 82% 30.24 in 4.3 mi WNW 5.8 mph - N/A   Scattered Clouds
9:30 AM 51.8 °F 46.4 °F 82% 30.24 in 4.3 mi WNW 4.6 mph - N/A   Mostly Cloudy
10:00 AM 53.6 °F 46.4 °F 77% 30.24 in 5.0 mi WNW 4.6 mph - N/A   Mostly Cloudy
10:30 AM 55.4 °F 46.4 °F 72% 30.27 in 5.6 mi WNW 3.5 mph - N/A   Mostly Cloudy
11:00 AM 57.2 °F 44.6 °F 63% 30.27 in 5.6 mi NW 1.2 mph - N/A   Mostly Cloudy
11:30 AM 60.8 °F 48.2 °F 63% 30.27 in 6.2 mi ENE 1.2 mph - N/A   Mostly Cloudy
12:00 PM 60.8 °F 46.4 °F 59% 30.27 in 6.2 mi ESE 2.3 mph - N/A   Mostly Cloudy
12:30 PM 60.8 °F 44.6 °F 55% 30.24 in 6.2 mi SSE 4.6 mph - N/A   Scattered Clouds
1:00 PM 63 °F 46 °F 42% 30.26 in 9 mi SE 6.9 mph - -   Partly Cloudy
1:00 PM 60.8 °F 46.4 °F 59% 30.24 in 6.2 mi SE 6.9 mph - N/A   Scattered Clouds
1:30 PM 60.8 °F 46.4 °F 59% 30.24 in 6.2 mi SSE 6.9 mph - N/A   Partly Cloudy
2:00 PM 60.8 °F 46.4 °F 59% 30.24 in 6.2 mi SSE 8.1 mph - N/A   Partly Cloudy
2:30 PM 60.8 °F 46.4 °F 59% 30.21 in 6.2 mi SE 8.1 mph - N/A   Partly Cloudy
2:51 PM 60.8 °F 48.2 °F 63% 30.21 in 6.2 mi SE 9.2 mph - N/A   Partly Cloudy
3:00 PM 60.8 °F 48.2 °F 63% 30.21 in 6.2 mi SE 8.1 mph - N/A   Partly Cloudy
3:07 PM 60.8 °F 48.2 °F 63% 30.21 in 6.2 mi SE 9.2 mph - N/A   Partly Cloudy
3:30 PM 60.8 °F 46.4 °F 59% 30.21 in 6.2 mi SE 9.2 mph - N/A   Partly Cloudy
4:00 PM 60.8 °F 46.4 °F 59% 30.18 in 6.2 mi SE 9.2 mph - N/A   Partly Cloudy
4:30 PM 59.0 °F 48.2 °F 67% 30.18 in 6.2 mi SE 10.4 mph - N/A   Partly Cloudy
5:00 PM 60.8 °F 48.2 °F 63% 30.18 in 6.2 mi SE 10.4 mph - N/A   Partly Cloudy
5:30 PM 59.0 °F 48.2 °F 67% 30.18 in 6.2 mi SE 10.4 mph - N/A   Partly Cloudy
6:00 PM 59.0 °F 48.2 °F 67% 30.18 in 6.2 mi SSE 8.1 mph - N/A   Partly Cloudy
6:30 PM 59.0 °F 48.2 °F 67% 30.18 in 6.2 mi SE 8.1 mph - N/A   Partly Cloudy
7:00 PM 59 °F 48 °F 59% 30.20 in 9 mi SE 6.9 mph - -   Scattered Clouds
7:00 PM 57.2 °F 48.2 °F 72% 30.18 in 6.2 mi SE 6.9 mph - N/A   Partly Cloudy
7:30 PM 57.2 °F 48.2 °F 72% 30.18 in 6.2 mi SE 4.6 mph - N/A   Partly Cloudy
8:00 PM 55.4 °F 48.2 °F 77% 30.18 in 6.2 mi SE 2.3 mph - N/A   Partly Cloudy
8:30 PM 55.4 °F 46.4 °F 72% 30.18 in 6.2 mi ESE 1.2 mph - N/A   Partly Cloudy
9:00 PM 53.6 °F 46.4 °F 77% 30.18 in 6.2 mi Calm Calm - N/A   Partly Cloudy
9:30 PM 51.8 °F 46.4 °F 82% 30.21 in 6.2 mi West 1.2 mph - N/A   Partly Cloudy
10:00 PM 51.8 °F 44.6 °F 76% 30.21 in 6.2 mi Variable 1.2 mph - N/A   Partly Cloudy
10:30 PM 48.2 °F 44.6 °F 87% 30.21 in - WNW 1.2 mph - N/A   Clear
11:00 PM 48.2 °F 42.8 °F 82% 30.21 in - West 3.5 mph - N/A   Clear
11:30 PM 48.2 °F 42.8 °F 82% 30.18 in - WNW 4.6 mph - N/A   Clear